Theta_e
324 326 327 329 332 332 327 326 330 330 329 330 331 333 333 335 333 330 330 329 330 334 334 330 330 331 332 332 329 327 329 328 328 329 330 331 331 331 330 328 328 327 327 327 326 326 325 325 324 323 322 321 320 319 317 314 312 313 315 317 316 317 319 320 320 320 320 319 318 318 317 316 316 316 316 315 315 314 313 313 313 312 312 312 313 312
323 326 327 330 330 329 326 325 329 328 327 328 331 334 335 334 332 330 329 330 330 334 334 330 330 331 330 330 328 327 329 329 328 328 328 329 330 331 330 328 327 327 327 326 325 324 324 324 323 322 321 319 318 317 315 312 310 310 311 312 313 313 315 317 318 318 317 317 316 316 315 315 316 316 315 315 315 315 314 313 313 311 309 309 312 312
325 326 328 326 323 325 325 325 327 328 328 329 331 335 336 333 330 330 329 329 331 333 333 331 331 332 331 332 329 327 329 328 327 328 328 328 330 331 330 328 326 326 326 325 324 324 323 322 321 320 319 318 317 316 316 314 312 312 313 314 313 312 312 314 317 316 315 315 315 315 314 315 315 315 315 314 315 315 313 313 313 313 311 308 310 311
326 330 329 323 322 324 326 326 326 328 329 330 332 334 333 331 331 331 330 329 329 331 333 332 332 333 334 335 332 329 328 328 327 328 328 329 330 331 329 328 327 326 325 324 324 324 323 321 319 318 318 318 318 318 317 316 315 314 315 316 315 313 312 312 315 317 316 316 314 315 315 315 314 314 314 313 314 314 313 312 313 313 311 308 309 312
326 329 325 322 323 324 326 326 327 330 330 328 330 333 332 333 334 332 330 329 330 330 329 331 333 335 335 334 332 330 328 328 328 328 328 329 330 330 328 327 327 325 324 325 324 324 322 320 319 319 320 319 319 318 318 317 317 315 315 315 314 314 313 313 314 314 315 316 315 315 315 315 314 314 314 314 313 313 312 312 312 312 310 308 309 311
326 325 321 322 323 323 327 328 326 329 331 329 329 330 330 332 332 330 329 330 332 331 329 332 335 335 334 334 332 331 331 330 329 328 329 330 330 328 327 326 326 325 325 325 324 323 321 319 319 320 320 319 319 319 318 317 316 315 314 315 314 313 314 315 315 314 313 313 314 315 315 315 315 314 314 314 313 313 311 312 312 311 311 311 310 309
326 322 321 323 322 322 325 327 325 326 330 331 330 328 328 330 331 331 331 332 335 334 330 333 338 335 332 333 331 331 333 332 330 329 329 330 330 327 326 326 326 325 325 324 323 322 320 320 320 320 319 319 320 319 318 317 316 316 315 315 315 314 314 315 315 315 314 313 314 314 314 314 314 314 314 314 313 313 311 312 312 312 312 312 310 309
325 322 322 323 323 324 325 325 324 325 329 331 329 328 329 330 331 330 332 335 336 334 330 331 336 335 332 332 330 330 332 333 332 331 329 329 330 328 326 327 326 325 325 323 323 322 321 321 321 320 319 319 319 319 318 317 316 316 316 315 315 315 314 315 315 315 314 314 313 313 313 314 314 313 314 313 313 313 312 311 311 311 312 312 309 308
322 322 323 324 326 326 325 326 324 324 330 331 326 328 329 329 330 329 333 336 333 333 333 331 331 335 337 335 330 330 332 332 333 332 329 328 329 328 327 326 326 325 325 325 325 323 321 321 321 320 319 318 318 318 318 317 316 316 317 316 316 315 315 315 315 315 314 314 313 312 311 312 312 311 312 312 312 313 311 309 309 309 310 310 308 306
320 321 321 324 327 326 324 323 323 326 330 326 325 329 329 328 330 330 334 335 331 334 338 333 330 336 340 337 332 332 333 331 332 331 329 329 329 329 327 326 327 326 326 326 326 323 321 321 321 320 320 319 318 319 318 317 316 317 318 317 316 316 315 315 315 315 315 314 314 313 311 311 311 311 310 307 307 309 309 307 307 306 306 306 305 305
322 323 322 323 324 323 322 322 324 326 324 324 327 329 329 331 335 337 338 335 331 336 339 333 330 333 338 336 332 331 332 330 331 331 330 328 328 329 328 327 327 327 327 326 325 323 321 321 321 320 320 319 318 318 318 317 317 318 318 317 317 317 316 316 316 315 315 315 314 314 313 312 312 313 311 307 307 309 309 309 309 308 308 306 305 305
328 327 324 323 323 323 325 325 325 324 323 326 329 328 330 334 336 339 340 334 332 338 339 333 329 330 335 337 332 329 330 330 330 330 330 328 328 329 329 328 327 327 327 326 325 323 322 321 321 321 319 319 319 318 317 317 318 319 319 318 318 318 317 317 316 316 316 316 315 314 314 313 313 313 312 310 311 312 312 312 311 311 311 309 307 308
332 331 326 323 323 325 329 331 327 327 328 327 328 331 333 333 332 335 337 334 335 339 337 332 329 331 335 337 332 328 329 330 328 329 329 328 328 328 329 329 328 327 327 326 325 324 322 321 321 321 319 319 319 317 316 317 318 318 319 319 318 318 318 317 317 317 317 317 316 315 314 314 314 313 313 312 312 312 312 312 312 311 311 310 310 310
332 332 330 326 325 326 331 335 332 333 333 329 332 338 338 334 332 333 334 333 333 335 335 332 330 334 336 335 333 330 327 328 328 328 328 328 328 328 329 329 328 327 327 326 325 324 323 322 321 321 320 318 317 315 316 318 318 319 319 319 318 318 318 318 318 317 318 318 316 316 315 314 314 314 313 312 313 313 312 312 312 312 311 311 310 311
331 331 334 328 326 327 329 334 336 337 335 333 336 340 339 337 336 334 332 333 334 334 335 330 329 335 335 333 335 330 325 327 328 328 329 328 328 328 329 329 328 327 326 326 325 324 323 322 321 321 319 316 315 315 317 317 318 319 319 319 319 318 318 318 318 318 318 318 317 316 316 315 314 314 313 313 313 313 313 312 312 312 311 311 311 311
325 330 335 327 324 328 326 327 330 333 333 332 332 334 335 335 340 338 333 336 337 334 335 331 329 338 337 332 334 328 325 327 326 327 329 328 328 328 329 329 328 326 326 325 325 324 323 322 321 320 318 316 315 316 317 317 318 319 319 319 319 319 319 319 318 319 319 319 318 317 316 315 314 314 314 313 313 313 313 312 312 312 311 311 311 311
324 331 332 323 322 327 326 325 326 328 330 331 329 332 334 330 339 339 329 334 337 332 334 331 330 339 337 331 334 330 326 328 326 327 328 327 328 328 328 328 327 326 326 326 325 324 323 322 321 320 318 318 317 316 317 318 318 319 319 319 319 319 319 319 319 319 319 319 319 318 317 316 315 315 314 314 313 313 312 312 312 312 311 311 312 312
331 334 332 325 322 324 325 325 327 326 328 333 332 333 331 325 334 340 332 335 336 330 335 335 333 338 334 331 335 333 329 329 328 327 327 327 328 328 328 328 327 326 326 326 325 325 324 322 321 320 318 319 319 317 317 318 318 319 319 319 320 319 319 319 319 319 319 319 319 319 318 317 316 316 315 314 314 314 313 313 312 311 311 312 312 312
332 332 330 328 324 323 324 323 326 324 323 331 332 329 330 327 332 334 329 333 333 329 334 337 334 335 336 336 336 332 332 332 329 328 328 327 328 328 328 328 327 327 326 326 325 325 324 323 322 321 318 318 319 319 318 318 319 319 318 319 320 320 320 319 319 319 319 320 320 319 318 317 317 317 317 315 314 314 314 313 312 311 311 311 311 311
334 332 327 327 325 321 323 325 328 328 325 325 325 326 333 335 336 332 326 330 334 333 335 334 332 334 341 344 337 332 333 332 329 330 328 327 328 328 328 328 328 327 326 326 325 325 324 323 322 321 318 319 319 319 319 319 319 320 319 319 320 320 320 319 320 320 319 319 320 320 319 318 318 318 318 316 314 314 314 313 312 312 311 311 312 312
334 332 327 328 325 319 322 325 327 331 328 324 325 328 330 330 331 330 328 330 334 337 338 334 332 339 344 341 335 333 333 330 330 330 327 327 328 328 328 328 328 327 326 326 325 325 324 323 322 320 319 319 319 319 320 319 319 320 319 319 319 320 320 320 320 320 320 319 320 320 319 319 319 319 318 317 315 314 314 313 312 312 311 312 312 312
329 333 333 329 323 321 327 326 326 328 327 329 333 334 335 333 329 329 328 331 335 337 338 335 334 341 346 339 336 334 330 328 329 328 327 327 328 328 328 328 328 327 327 326 326 325 324 323 322 320 319 319 320 320 320 319 320 320 320 319 319 320 320 320 320 320 320 320 320 320 320 320 319 319 318 317 315 314 314 313 312 312 312 312 313 313
332 341 339 328 324 325 325 322 323 323 323 330 331 335 340 336 334 338 335 333 333 328 331 335 335 341 346 340 335 331 326 327 328 326 327 327 327 328 328 328 329 327 327 326 326 325 324 323 322 320 319 319 320 320 319 319 320 319 320 320 319 320 320 320 320 321 320 321 320 320 320 320 319 318 318 317 315 314 315 313 312 312 313 314 313 314
333 338 331 332 340 338 330 329 330 328 330 329 324 331 335 328 337 349 343 337 334 326 327 332 332 340 345 334 327 326 326 327 328 328 328 327 328 329 328 328 329 328 327 327 325 325 324 323 322 319 318 319 319 320 319 319 319 319 320 320 320 320 320 320 321 321 320 320 320 320 319 320 319 318 318 317 315 314 314 313 313 313 314 314 314 314
329 332 332 339 342 336 334 340 338 334 338 332 324 327 328 328 339 342 336 340 335 325 330 334 333 342 344 333 327 327 326 326 327 328 328 328 328 328 328 329 328 327 327 326 325 325 323 323 323 320 319 319 319 320 320 319 319 319 320 320 320 320 320 321 321 320 320 321 320 320 319 319 319 318 317 316 315 313 313 313 313 314 314 314 314 314
330 339 348 346 336 331 335 339 335 331 333 333 330 327 323 327 332 326 329 339 335 327 333 337 337 338 335 332 332 330 328 328 327 327 327 329 328 328 328 328 327 327 327 325 325 324 324 323 323 322 320 320 319 320 320 320 319 319 320 320 320 321 321 321 321 320 321 320 320 320 319 318 318 318 317 316 315 313 314 314 314 314 314 314 314 313
339 342 350 352 345 342 344 344 340 332 327 328 328 325 325 327 332 335 336 334 329 330 334 336 339 334 327 330 333 331 331 331 327 326 327 328 328 328 328 328 328 327 326 325 325 324 324 324 322 323 322 321 320 319 320 320 320 319 320 320 321 321 321 321 321 320 320 320 320 319 317 317 317 317 317 315 314 314 314 314 314 314 314 313 313 312
350 337 335 344 346 346 348 350 344 331 323 325 324 323 326 331 339 348 340 327 327 333 332 334 339 334 328 331 333 331 332 331 326 325 326 327 328 328 328 328 327 327 326 326 325 324 324 324 323 323 322 321 321 320 320 320 320 320 320 321 321 321 321 321 320 320 320 320 319 318 317 317 318 318 317 315 314 314 314 314 314 314 313 312 311 309
353 334 327 334 337 340 346 347 341 329 324 328 329 328 330 331 336 336 328 327 336 339 339 340 338 333 333 334 332 331 330 328 326 326 326 327 328 327 328 327 327 327 326 326 326 325 325 324 323 323 322 322 321 321 321 320 320 320 321 321 321 321 321 321 320 320 320 319 319 318 317 317 316 317 316 314 314 314 314 314 314 313 312 310 308 306
339 338 335 330 327 334 340 337 334 327 324 326 327 328 329 331 334 331 327 333 339 338 341 344 338 335 337 335 330 328 327 326 326 326 326 327 326 326 327 326 327 327 326 326 326 325 325 325 324 324 323 323 322 322 322 321 320 320 321 321 321 321 321 321 320 320 319 318 318 317 315 314 314 315 315 314 314 314 314 314 313 312 310 307 305 303
329 335 338 333 326 332 338 335 330 327 325 326 327 326 327 329 330 327 326 331 332 328 333 338 334 332 331 328 327 327 325 326 326 325 326 327 326 326 326 325 326 326 326 326 325 325 326 326 325 324 324 324 322 322 322 321 321 321 321 321 321 321 321 320 319 318 317 316 316 315 314 313 314 314 314 314 314 313 313 312 311 309 307 305 303 302
331 331 333 332 326 329 335 330 328 333 334 335 332 326 325 329 331 328 329 334 333 330 331 334 333 333 329 325 325 325 324 325 325 325 326 327 326 326 325 325 326 325 325 325 325 326 326 325 325 324 323 323 322 322 322 322 321 322 321 321 321 320 319 318 317 316 315 315 314 314 314 314 314 314 314 314 313 312 312 310 308 306 304 303 301 302
338 336 333 329 325 330 335 330 333 341 336 336 341 333 326 330 331 328 329 332 334 335 336 335 334 335 331 326 326 327 324 323 324 324 325 325 325 325 325 325 325 325 325 326 325 326 326 325 325 325 324 323 322 322 322 322 322 322 321 320 319 318 318 317 316 315 314 314 313 313 314 314 314 314 314 313 312 311 309 307 305 304 303 301 301 301
336 338 337 332 326 328 335 334 336 336 328 334 349 345 332 332 333 331 332 331 333 339 341 336 335 335 329 325 328 327 324 324 325 324 324 325 324 324 324 324 323 323 324 324 325 325 326 325 326 325 324 324 323 322 322 322 322 321 320 319 318 317 316 316 315 314 314 314 314 314 314 314 314 314 313 312 310 308 306 305 304 303 301 300 301 302
334 330 331 331 325 327 337 335 327 326 330 341 348 340 333 336 339 339 338 333 333 338 339 333 332 331 325 323 325 324 322 324 325 324 325 324 324 324 323 323 323 323 323 323 324 325 325 325 325 325 325 324 322 322 322 321 320 319 318 317 317 316 316 315 314 314 314 314 314 314 314 314 314 313 313 311 309 307 305 303 303 302 300 299 300 300
340 332 329 330 324 325 330 326 322 327 336 343 341 330 326 330 334 331 326 326 330 334 334 333 330 327 322 320 321 323 322 322 321 322 323 323 322 323 322 323 323 323 323 324 324 325 325 325 325 324 323 323 322 322 320 317 316 316 315 315 315 315 315 315 314 314 314 314 314 314 314 314 313 313 312 310 307 306 303 302 302 303 301 298 297 296
346 339 329 325 323 325 325 326 330 331 330 337 340 329 322 325 332 333 329 329 332 329 326 332 331 324 319 320 321 322 322 321 320 321 322 322 322 322 322 323 323 323 323 323 323 323 323 323 323 323 322 322 320 319 317 315 314 315 314 314 314 314 314 314 314 314 315 315 315 314 314 314 313 312 310 308 306 304 302 302 303 303 302 297 294 292
341 338 333 329 328 330 330 325 325 323 327 341 347 335 327 325 329 334 332 332 333 324 321 328 330 322 319 320 321 320 320 323 324 322 321 322 322 322 322 322 322 322 322 322 322 322 321 321 321 321 320 320 318 316 315 315 315 315 314 315 314 314 314 315 315 315 315 315 314 314 313 313 312 310 308 306 304 303 302 302 303 304 301 296 292 291
332 335 345 340 328 329 329 322 319 320 329 346 350 337 326 321 323 328 331 336 335 323 319 324 323 319 320 319 319 320 322 325 325 322 320 322 322 321 322 322 322 322 321 321 320 320 319 319 319 318 318 317 316 316 315 315 315 315 315 315 315 315 315 315 315 315 315 314 314 313 312 311 309 307 305 304 303 302 302 303 303 303 299 294 291 291
329 331 340 335 326 327 328 324 324 324 326 338 347 336 323 320 324 325 328 337 335 322 320 322 319 319 321 320 319 320 323 326 325 320 320 322 322 321 322 322 322 321 320 320 319 318 318 318 317 316 316 315 316 316 316 316 316 316 316 315 315 316 316 315 315 315 314 313 313 312 310 308 306 304 304 304 303 302 303 303 303 301 297 292 291 291
329 328 330 332 333 331 325 321 324 328 333 340 342 332 319 319 325 326 331 339 332 321 321 323 320 321 322 320 320 321 322 323 322 320 321 322 322 322 322 322 322 320 319 318 319 318 318 317 316 316 315 315 316 316 316 316 316 316 316 316 316 316 315 315 315 314 313 313 312 310 308 306 304 304 304 303 302 302 303 302 302 299 295 291 291 290
328 326 325 329 332 330 329 326 322 325 333 333 328 322 318 320 328 333 336 332 323 321 323 321 321 323 322 321 322 322 322 322 320 320 322 322 322 322 322 322 321 317 316 317 317 318 317 317 317 317 316 316 316 316 316 316 316 316 316 317 316 315 315 314 313 313 312 311 309 307 305 304 304 303 303 303 303 302 302 301 300 298 293 291 291 290
329 327 329 334 334 328 324 322 320 327 334 327 320 323 323 325 331 333 328 322 320 322 324 321 322 323 321 322 322 321 322 322 320 321 323 322 323 322 322 322 319 316 316 318 317 318 318 317 318 317 316 316 317 317 316 317 316 317 316 316 315 314 314 313 313 312 311 308 306 305 304 304 304 303 303 302 302 302 301 300 299 296 292 291 290 290
328 329 333 338 336 329 324 325 328 334 335 324 322 327 326 324 326 325 323 323 323 322 322 323 323 323 323 322 322 321 321 321 321 322 323 322 322 322 322 321 318 316 317 317 318 318 318 318 319 318 317 317 317 317 317 317 317 317 316 316 315 314 313 313 312 311 309 306 304 304 303 304 304 303 302 302 302 301 300 299 298 295 291 290 290 290
329 332 336 338 336 333 336 339 334 328 325 322 323 326 323 320 323 325 325 325 323 322 324 323 322 323 323 322 322 321 320 320 321 322 321 322 322 322 321 320 317 316 317 317 318 318 318 318 319 318 317 318 317 317 317 317 316 316 316 315 314 313 313 312 312 310 307 305 304 303 303 304 304 303 302 302 301 300 299 298 296 294 291 290 290 290
328 326 329 333 334 330 330 332 328 324 324 324 321 321 322 323 325 326 324 324 324 324 323 322 322 323 323 322 322 321 320 320 320 320 321 322 322 321 320 318 316 317 318 318 318 318 318 319 319 319 318 318 317 316 316 316 316 316 316 315 313 312 312 311 310 307 305 304 304 303 303 304 304 302 302 301 300 299 298 296 295 293 291 290 290 289
327 324 327 328 326 327 331 334 332 327 324 322 321 322 325 325 325 324 324 324 324 323 323 323 322 323 322 322 322 320 320 320 319 319 321 321 320 320 319 317 316 317 317 318 318 318 318 319 319 319 317 315 314 315 315 315 316 316 315 315 313 312 311 310 307 305 304 304 303 302 303 303 303 302 301 300 299 298 296 295 294 293 291 290 290 290
326 323 331 331 326 329 333 332 329 326 323 322 322 323 324 324 324 323 323 323 322 322 323 323 322 323 322 322 322 321 320 320 319 319 319 318 319 319 318 317 317 316 317 318 318 318 318 318 317 317 315 312 312 314 314 314 315 315 314 314 312 311 310 308 305 304 304 304 303 302 302 303 303 302 301 299 298 296 295 295 294 292 291 291 290 290
324 322 329 330 330 333 330 325 324 327 326 324 322 322 323 323 323 323 323 322 322 321 322 322 323 324 322 322 323 322 320 319 319 319 318 318 318 319 318 318 317 316 316 317 316 317 317 315 315 315 313 312 312 312 313 313 313 313 312 312 311 310 308 306 304 304 304 303 302 301 302 302 302 302 301 299 297 295 295 295 293 292 292 291 290 290
323 328 331 328 330 335 331 325 327 331 330 326 323 322 322 322 323 323 324 322 321 321 322 323 323 323 323 323 323 322 320 320 320 319 318 318 318 318 318 318 318 317 316 317 317 317 317 315 314 314 312 312 312 312 312 312 312 311 311 311 310 308 306 304 304 304 303 302 301 301 301 302 301 301 301 298 295 294 294 294 293 292 292 291 290 290
324 329 333 334 336 334 328 325 326 327 328 327 324 323 323 323 323 324 323 322 321 321 322 323 323 323 323 323 322 322 322 321 320 320 319 319 319 319 319 318 318 318 317 317 317 318 318 316 314 314 312 311 311 311 311 311 310 310 310 310 309 306 304 304 304 304 303 302 302 302 302 301 300 300 299 296 294 294 294 293 292 291 292 292 291 290
Wind_Speed
6 3 2 4 5 7 9 7 4 6 9 9 7 5 5 3 3 5 4 3 5 5 3 3 4 3 3 3 4 7 7 6 8 10 11 14 15 16 16 17 17 16 17 17 14 12 11 11 10 9 8 7 6 4 2 3 4 3 3 3 3 4 4 5 6 6 4 2 2 3 5 7 7 7 9 12 13 14 14 10 7 7 7 8 9 11
2 2 5 7 8 9 8 7 9 9 9 7 7 7 4 3 4 5 6 3 1 3 2 3 5 2 3 3 4 7 6 7 11 12 13 15 15 15 16 18 18 18 19 17 14 11 10 10 9 7 6 6 5 4 5 6 7 6 6 5 6 5 3 3 4 3 2 2 5 6 6 6 5 6 8 10 11 12 14 13 12 13 12 9 7 10
1 4 9 10 7 5 7 10 13 10 8 6 5 5 4 6 6 3 6 5 1 1 2 3 5 1 3 2 4 8 9 9 15 15 15 17 17 15 16 20 22 20 19 16 13 11 9 9 8 7 6 5 5 7 9 9 9 9 9 10 10 9 7 5 3 2 2 4 6 9 10 8 7 7 7 8 9 10 12 13 13 14 15 13 10 11
0 5 11 9 5 7 8 10 11 8 6 4 5 6 5 7 6 2 3 6 2 2 3 4 4 1 3 3 3 10 13 12 14 16 14 16 17 15 18 23 23 21 19 17 14 12 11 8 7 7 6 5 6 9 10 9 9 9 10 12 12 12 12 10 6 3 4 5 6 8 9 9 9 8 8 8 8 8 10 11 11 11 14 14 12 12
5 9 8 4 6 8 9 9 10 7 3 3 4 6 6 6 5 5 5 6 4 4 4 6 4 3 3 2 3 8 12 11 14 16 13 15 15 14 19 23 22 20 19 18 16 14 11 8 8 8 7 6 7 9 10 8 7 8 9 10 10 11 13 13 10 7 4 4 5 7 8 8 8 8 7 8 9 9 9 9 10 10 13 15 14 14
7 11 8 3 6 10 9 7 9 8 5 3 4 6 10 9 9 11 10 7 5 2 3 4 3 3 4 4 5 4 6 8 12 15 15 16 15 17 23 24 21 19 18 17 17 14 10 8 11 10 9 8 8 9 9 6 6 7 7 7 8 9 11 12 12 12 9 6 5 6 8 8 8 8 7 8 10 11 10 10 11 11 13 15 15 14
5 5 1 4 7 11 10 6 8 9 6 2 5 8 11 10 12 13 11 6 3 3 6 4 3 1 4 5 7 5 4 5 8 11 16 18 16 20 25 23 21 21 20 19 16 13 10 11 14 13 10 9 8 9 8 6 6 6 5 5 6 9 10 10 10 11 12 10 7 6 7 8 9 8 8 9 10 11 11 10 11 11 12 14 14 13
3 4 6 3 4 7 6 5 7 10 6 3 6 11 12 12 13 12 9 5 3 4 4 3 3 2 2 6 7 6 5 6 7 8 13 18 18 21 25 25 23 23 22 20 17 14 12 13 16 14 11 10 10 10 8 6 4 3 3 4 5 7 9 9 8 8 9 10 10 8 6 7 8 8 8 8 8 10 10 10 11 11 11 13 13 12
2 3 5 4 6 5 3 5 10 10 4 4 10 13 12 13 12 9 6 4 3 5 3 5 3 2 3 5 4 6 6 8 10 10 11 17 20 21 26 27 25 24 22 19 18 15 13 15 16 15 12 11 11 11 8 4 0 1 4 5 4 6 7 7 7 6 7 7 8 8 6 6 7 7 6 5 4 7 10 11 11 10 10 12 12 11
2 2 3 5 5 2 2 4 10 9 3 7 13 11 8 8 7 5 4 4 3 3 3 7 5 3 3 4 5 6 7 10 11 9 11 18 22 23 27 29 27 26 23 20 18 16 14 15 16 15 13 11 12 11 8 5 4 5 6 5 5 5 5 6 5 4 5 6 7 9 8 7 9 10 8 4 3 6 9 12 11 11 11 10 10 11
3 3 2 3 3 3 3 6 5 4 9 13 10 8 7 4 4 4 3 4 4 2 4 8 9 5 2 4 5 7 9 12 11 8 10 18 22 25 28 29 28 27 25 22 19 17 16 16 16 15 13 12 13 11 8 8 7 8 7 5 5 4 4 5 3 2 3 5 6 8 10 9 10 12 12 9 8 11 14 15 15 15 17 13 9 10
6 5 2 1 3 6 8 8 9 8 11 13 6 5 6 3 3 3 4 3 2 3 5 6 9 6 2 4 6 10 9 9 12 10 11 16 21 27 29 29 29 29 27 25 22 19 19 19 18 16 14 14 14 12 11 11 10 9 8 6 5 4 5 5 4 2 1 3 5 7 9 10 10 11 13 12 11 14 15 17 17 18 21 18 11 11
4 3 3 2 2 7 8 5 5 7 7 8 6 6 5 1 2 1 2 1 2 4 3 4 7 4 4 6 8 13 9 9 15 18 18 21 24 28 30 30 29 29 29 28 24 23 22 21 20 18 16 15 15 13 12 12 12 10 10 9 8 6 6 6 5 3 0 2 3 6 7 8 8 9 12 13 12 12 13 15 16 16 19 19 15 14
2 5 4 2 2 2 6 4 1 2 3 5 6 5 4 3 2 1 3 1 2 3 2 4 7 2 4 5 6 12 14 17 23 26 28 28 28 30 32 32 29 28 31 30 27 25 24 22 21 18 15 14 14 13 12 13 12 10 11 11 10 8 8 7 6 5 2 2 2 4 6 5 5 7 10 12 12 11 10 12 13 14 17 16 15 15
2 3 3 1 1 0 3 5 6 4 3 3 4 5 4 4 4 3 3 2 2 3 2 3 4 2 2 4 5 10 16 21 25 27 29 30 30 31 32 32 29 29 32 32 29 27 25 23 20 18 15 13 13 13 12 13 13 11 12 13 12 10 9 8 8 6 3 3 1 2 3 3 3 5 8 10 11 9 9 10 11 13 15 13 12 13
4 3 6 3 5 6 4 3 6 7 2 2 2 5 1 4 4 2 3 4 3 1 1 2 3 3 3 4 5 4 12 16 19 22 24 25 27 29 30 30 28 30 33 33 31 29 26 23 19 18 16 13 12 13 12 13 13 13 13 14 13 11 9 10 10 7 4 3 1 1 1 1 2 3 5 8 10 8 9 10 10 12 13 11 11 12
3 4 6 1 3 7 10 9 6 6 2 1 2 2 3 4 6 3 0 1 3 3 1 2 2 4 1 3 5 3 8 9 12 17 21 24 27 28 30 30 28 31 34 34 32 30 27 24 21 19 17 14 12 13 13 13 13 13 13 14 14 12 11 11 11 8 5 3 2 1 2 2 1 3 5 7 8 9 9 9 10 12 12 10 11 12
4 2 5 2 2 7 15 14 4 4 8 4 1 4 2 2 4 4 2 3 3 1 3 2 2 3 0 1 4 3 8 8 8 13 17 22 26 27 29 30 29 30 34 34 32 30 27 24 22 20 17 14 12 12 12 12 12 11 12 14 13 14 13 11 11 9 5 3 2 3 4 3 2 3 6 6 7 8 8 8 10 12 12 11 11 11
5 1 6 3 5 6 8 6 2 2 5 4 3 4 3 2 1 1 2 1 1 1 3 3 2 3 2 3 3 3 8 8 8 11 13 17 23 26 27 30 28 28 32 34 32 31 28 25 23 21 17 15 13 12 13 14 13 12 12 13 13 14 13 11 11 9 6 4 4 4 5 4 3 3 6 6 6 7 8 8 8 11 13 12 11 11
4 4 3 5 3 4 2 3 1 5 4 2 2 1 2 3 3 2 2 3 3 2 2 3 3 2 4 5 6 8 8 8 10 10 11 17 24 27 28 29 28 27 31 34 33 32 29 26 24 20 17 15 14 13 15 16 16 14 12 12 13 13 14 13 12 9 7 6 6 6 6 5 4 4 5 6 6 5 7 7 6 10 12 11 11 12
3 4 2 5 2 3 1 2 6 5 4 1 1 3 1 0 1 1 1 2 4 3 2 1 1 5 5 4 8 10 8 9 12 11 12 19 26 28 29 30 29 28 30 32 33 32 29 26 24 20 16 15 14 13 15 17 18 16 13 13 13 14 15 16 13 9 7 7 7 7 7 6 4 5 5 5 5 4 5 6 6 9 11 11 12 11
2 3 3 1 1 2 4 6 7 9 8 6 4 4 3 2 2 3 1 2 2 4 4 3 2 6 5 3 6 8 7 9 13 15 15 20 27 29 30 31 30 28 28 29 30 30 29 26 24 21 18 16 15 16 17 19 20 18 16 15 14 14 15 15 12 8 6 8 7 6 5 5 4 4 5 5 6 5 4 5 6 9 11 12 12 9
3 4 4 1 3 4 6 5 3 7 7 5 3 3 3 3 4 5 2 3 1 2 1 3 1 5 5 3 6 9 11 14 18 19 18 22 27 29 30 31 30 27 26 27 27 28 27 25 24 22 19 17 17 17 18 20 21 20 17 16 16 15 14 14 11 7 6 8 7 5 5 5 4 3 4 5 6 6 5 5 6 9 10 8 8 7
2 3 3 1 4 4 5 6 4 3 5 4 2 1 4 3 3 5 5 3 2 1 0 2 0 5 5 2 7 12 15 16 18 20 21 23 26 29 30 29 28 28 26 26 26 26 25 25 24 22 21 20 19 18 18 20 22 22 19 17 16 15 14 14 11 7 6 7 6 5 5 5 3 3 4 5 6 7 5 6 7 7 5 6 7 8
1 1 2 3 3 5 6 6 6 6 4 2 1 2 2 3 4 4 1 3 3 1 3 4 2 6 5 0 6 9 10 11 15 19 22 24 26 28 28 28 28 28 27 27 27 26 25 25 24 22 22 21 20 20 19 19 21 22 21 19 17 15 14 14 12 7 6 7 7 5 3 3 4 3 3 5 6 7 5 4 4 3 4 8 9 10
3 2 3 5 3 1 1 2 2 2 2 1 2 3 1 4 5 3 1 4 2 1 3 4 4 5 4 2 5 6 7 8 11 15 20 23 26 27 27 27 27 27 28 28 28 26 26 25 23 21 21 21 22 22 21 20 19 20 20 19 17 15 14 14 11 7 6 8 8 4 1 2 3 3 4 4 4 4 1 1 2 4 7 10 10 11
4 2 2 6 6 5 6 6 5 3 1 2 1 1 1 4 6 5 4 3 2 1 1 3 5 3 2 0 4 6 7 8 8 13 18 20 23 25 25 25 25 25 27 28 28 27 26 25 24 20 18 19 21 22 22 21 20 19 19 18 16 14 13 13 11 7 7 9 7 3 2 2 1 3 4 3 2 2 3 3 4 7 9 9 11 13
5 2 0 6 5 6 7 7 5 3 2 3 3 2 1 4 6 6 3 3 4 4 1 6 5 6 5 5 6 7 7 6 8 15 21 22 23 24 24 24 26 26 26 26 26 26 25 24 23 20 17 18 19 21 21 20 20 20 16 14 14 14 13 13 11 7 7 7 5 2 1 0 2 4 6 6 5 4 4 4 7 8 9 10 13 14
6 1 2 3 2 5 5 5 3 3 2 3 6 5 4 6 7 5 4 5 6 6 5 6 6 7 7 6 7 9 10 12 15 20 24 25 26 26 25 26 28 28 27 26 24 23 23 22 21 19 19 19 17 15 14 14 18 20 14 10 12 13 12 14 12 7 6 6 5 4 4 5 6 8 8 7 6 5 5 6 7 7 10 13 14 14
5 1 4 3 1 5 5 6 4 4 1 1 3 7 6 7 8 6 5 5 6 5 5 5 7 6 6 6 8 11 18 21 21 22 23 25 28 27 27 28 28 27 26 25 24 23 22 20 19 19 18 17 16 13 10 12 17 18 13 11 12 13 13 14 12 8 7 9 8 7 7 7 9 9 9 7 6 5 5 6 7 10 12 13 13 14
3 2 3 3 3 5 6 6 5 4 4 1 2 4 5 7 5 3 3 4 4 2 1 5 7 3 4 6 9 12 18 20 18 19 21 25 28 28 27 28 28 27 26 24 23 23 22 20 18 20 19 16 15 13 11 15 18 15 11 10 13 13 13 12 11 10 11 11 10 9 9 9 8 7 6 5 5 4 4 6 9 11 12 13 14 14
3 1 1 4 3 5 5 5 4 2 5 3 4 3 7 6 5 3 3 4 4 5 4 6 6 3 4 5 7 11 17 19 19 21 23 25 27 27 26 25 24 26 26 25 25 24 22 20 18 20 20 17 15 14 16 18 16 11 9 11 12 12 12 12 13 13 12 12 11 10 8 7 5 4 4 4 2 4 7 10 12 13 14 15 15 13
3 3 1 3 3 5 6 4 2 5 7 5 4 7 9 5 3 3 1 3 5 7 7 5 5 6 5 6 7 7 12 17 19 21 23 22 20 20 20 18 16 19 22 25 28 26 23 21 19 19 20 18 17 17 17 16 12 10 10 11 12 13 14 15 14 13 13 12 10 8 7 5 5 4 4 2 4 8 10 12 14 14 15 15 13 12
3 5 3 2 2 4 6 2 4 5 2 5 6 7 9 7 6 6 4 6 6 5 4 5 6 4 5 8 9 9 11 16 21 23 24 23 20 17 18 17 14 13 13 17 24 27 26 24 22 22 20 18 18 17 15 13 10 10 11 12 14 15 17 17 15 14 13 11 8 7 6 6 6 4 3 4 8 11 13 14 14 14 14 13 12 13
3 3 2 2 2 1 2 6 4 1 5 7 6 4 5 7 8 7 4 5 6 5 6 6 6 7 10 13 15 17 16 17 21 23 24 26 25 22 21 19 16 13 11 10 14 21 26 26 25 25 22 19 17 16 14 11 10 12 13 14 16 17 17 16 15 13 11 9 8 8 7 6 4 2 4 7 11 13 14 14 13 13 14 13 13 14
5 3 2 1 1 1 2 3 2 5 7 6 7 5 2 4 5 5 0 5 6 6 9 9 8 10 12 12 13 16 17 18 19 22 26 27 25 23 22 20 18 16 13 12 12 14 19 21 22 22 20 18 17 15 14 13 14 15 15 14 15 16 16 15 13 12 10 9 9 8 6 4 2 5 8 11 13 14 14 13 12 13 13 14 13 13
7 5 2 1 0 2 3 1 2 3 5 6 4 3 3 2 3 6 3 6 8 7 10 11 9 9 9 10 13 18 20 19 14 15 23 26 22 21 21 20 19 18 17 16 16 16 18 19 20 21 20 18 16 14 14 16 16 15 14 14 14 14 14 13 12 12 10 9 8 6 3 2 5 8 11 13 14 13 13 12 11 11 13 14 14 12
6 5 4 3 0 2 3 1 3 1 2 6 7 7 4 2 6 8 4 4 7 9 15 13 9 9 10 13 19 23 21 13 6 9 20 25 22 20 20 20 19 18 17 18 18 18 19 19 19 19 18 17 15 14 15 16 14 12 12 12 13 12 12 12 11 11 10 8 6 4 1 5 8 10 12 13 13 12 11 10 9 10 13 14 13 11
7 4 5 5 1 1 4 1 1 3 4 7 8 8 3 6 10 8 5 4 6 11 18 15 12 14 18 22 24 21 14 6 3 10 21 25 23 21 21 21 20 17 15 14 15 17 19 19 19 18 16 16 16 15 14 13 11 11 12 13 14 13 12 11 10 10 9 6 4 2 4 7 10 11 12 12 11 10 9 8 8 10 13 14 12 10
6 4 4 4 1 1 3 2 2 3 5 5 6 6 5 11 10 9 3 6 6 9 19 20 18 20 26 30 27 16 9 8 10 16 25 27 24 22 21 21 20 17 15 15 16 19 21 21 20 17 15 16 17 15 13 11 10 11 13 14 15 14 12 12 11 10 7 5 2 4 7 9 11 11 11 11 10 8 6 6 7 10 14 13 11 9
2 2 2 4 3 3 4 2 3 3 5 6 6 7 9 9 7 5 4 7 3 9 18 23 25 27 30 32 27 18 16 18 20 24 31 30 26 24 22 20 18 16 16 18 19 20 21 21 18 14 14 15 15 13 12 11 10 11 12 13 14 13 12 11 10 8 5 3 3 6 8 9 10 11 10 9 8 6 5 6 8 11 13 12 10 9
2 0 0 2 3 3 4 2 2 4 6 5 6 6 8 6 1 4 7 5 8 13 16 22 26 29 31 33 31 25 21 19 23 30 34 32 28 27 24 21 19 18 19 20 19 18 19 18 15 14 15 15 14 13 12 11 11 12 13 13 13 12 11 10 8 6 3 2 4 6 8 9 9 9 8 7 5 4 5 6 8 12 13 11 10 10
4 3 2 2 3 2 1 2 1 4 6 8 9 4 4 4 4 7 10 11 11 13 12 16 22 26 30 31 25 19 18 21 28 34 36 33 29 27 26 24 22 23 24 23 20 18 18 18 17 16 15 14 13 12 11 10 11 13 13 13 12 11 10 9 7 4 3 2 4 6 7 8 7 6 5 5 4 4 6 7 9 11 12 10 10 9
3 4 3 4 3 4 2 2 4 5 9 17 14 5 7 8 6 10 15 13 11 11 10 10 13 18 25 25 19 17 22 28 33 35 35 33 30 28 27 25 24 25 25 23 21 20 20 21 19 16 15 13 12 11 10 9 10 12 14 13 12 11 10 8 6 4 3 3 4 6 6 6 5 4 3 3 3 5 6 8 10 11 11 10 9 9
6 6 5 3 3 4 4 6 7 5 12 23 18 8 9 11 10 13 15 12 12 12 9 8 8 12 20 22 20 23 28 31 33 34 34 33 31 30 28 26 25 26 25 23 22 21 21 22 20 16 15 14 11 10 9 8 9 11 13 12 12 12 10 7 5 4 3 3 4 5 3 3 2 2 2 2 4 6 7 8 10 10 9 8 8 8
5 5 3 2 1 1 1 3 3 3 12 22 18 10 10 13 14 15 14 12 11 10 10 10 10 13 20 23 24 28 31 30 31 32 32 32 32 30 29 27 26 26 24 23 22 22 23 23 20 17 16 14 11 10 9 8 8 9 11 12 12 12 9 6 5 4 3 3 3 2 2 3 2 3 2 3 4 6 8 9 9 9 8 7 7 7
1 2 2 1 2 2 1 4 5 8 16 21 17 13 15 17 15 14 14 13 11 10 12 13 12 16 23 25 24 29 31 29 30 32 32 32 32 32 31 30 28 27 25 22 21 22 24 24 21 18 14 12 12 11 10 9 9 9 10 11 12 11 8 5 3 2 1 2 2 1 3 3 3 3 3 3 5 6 8 8 8 8 7 6 7 8
1 2 1 0 2 3 4 8 9 11 17 21 18 17 19 19 16 14 14 11 9 10 14 15 15 21 26 25 24 29 31 30 31 32 31 32 33 34 33 31 28 26 25 23 23 22 22 20 18 16 13 12 12 12 11 11 11 10 10 11 11 9 7 4 3 1 1 1 2 2 4 4 3 3 4 4 5 7 7 7 7 7 6 6 8 9
1 1 2 1 1 2 4 4 4 3 7 14 17 18 20 21 19 17 14 12 10 11 15 18 21 24 25 25 26 29 31 32 31 30 31 32 34 35 34 31 28 26 26 26 24 21 20 18 17 15 14 14 14 13 12 12 11 11 12 12 11 9 7 5 4 2 1 2 3 3 4 4 4 5 6 6 7 7 6 6 6 6 5 6 8 9
1 3 2 3 2 3 5 5 8 4 5 14 21 22 21 22 21 19 16 14 13 14 16 20 25 25 24 25 27 29 32 33 31 30 31 32 33 34 33 30 28 28 27 26 24 22 21 19 18 17 17 17 16 14 13 13 13 13 13 12 9 7 5 5 4 2 2 3 3 4 5 5 6 7 7 8 8 7 6 5 5 5 5 6 8 9
5 4 3 4 4 5 6 9 14 11 7 14 22 25 23 23 23 22 19 17 16 18 18 20 23 27 28 28 27 28 31 33 32 31 32 32 32 32 31 30 29 29 28 26 25 26 24 22 20 19 18 18 17 15 14 14 14 14 13 11 9 7 6 4 3 2 2 3 3 4 5 5 6 7 8 8 8 7 6 5 5 4 3 4 7 8
Wind_Direction
139 115 195 199 195 198 199 186 141 128 137 136 126 124 145 132 111 130 127 147 138 99 62 101 131 168 190 216 215 193 183 182 190 188 180 175 169 167 159 151 152 146 139 138 141 144 144 144 142 143 145 144 139 127 87 79 94 126 157 178 160 141 159 168 169 168 161 142 61 22 8 11 24 34 28 24 23 21 24 26 24 15 4 350 346 353
130 179 237 220 206 200 187 148 121 123 128 123 121 129 136 106 120 138 125 134 155 88 80 115 125 173 233 234 235 200 185 205 208 196 191 186 175 173 166 155 154 150 146 146 147 149 151 152 152 153 156 153 138 104 73 70 77 87 95 93 81 84 134 159 162 178 168 89 56 49 40 29 28 31 21 21 31 29 23 23 23 21 18 14 8 5
334 245 251 235 204 165 151 137 131 136 127 112 121 126 117 115 117 108 122 143 231 89 126 135 126 163 277 272 238 208 199 213 209 198 193 188 179 178 172 159 153 152 153 154 153 154 153 152 154 159 156 141 109 88 80 76 76 79 77 69 62 62 71 89 96 97 80 65 66 69 65 57 49 42 33 29 36 31 21 19 19 18 15 18 28 23
201 244 248 233 177 123 142 150 135 128 119 120 132 124 130 140 128 106 152 155 148 95 118 118 106 20 323 331 259 212 211 218 210 204 200 190 183 183 177 166 160 159 159 159 159 159 157 154 151 146 136 120 105 96 91 86 75 71 72 65 61 61 63 69 78 87 78 62 67 79 80 70 60 57 52 44 39 28 21 20 18 17 13 16 30 34
227 246 242 194 147 144 154 154 136 124 131 152 153 140 150 158 130 125 146 134 83 60 98 100 71 343 300 291 274 215 211 217 209 209 210 200 195 186 172 167 166 166 167 167 165 164 164 157 148 141 137 136 123 113 110 95 67 60 70 66 58 61 67 68 70 75 85 91 85 80 84 81 69 64 57 49 41 27 22 25 26 26 24 26 34 37
254 264 248 182 155 156 158 160 150 144 142 164 208 173 155 145 123 123 132 121 80 87 175 126 81 310 284 260 255 227 206 208 201 203 210 208 202 181 168 167 169 170 172 174 171 169 167 156 155 153 148 148 141 135 128 104 75 65 62 60 55 62 71 70 67 60 57 84 118 93 78 77 71 64 57 51 40 28 31 41 40 35 32 33 35 37
263 289 235 165 160 151 159 171 159 148 132 182 212 165 144 132 128 136 140 130 117 178 194 163 114 240 279 262 246 227 205 212 201 199 204 203 194 178 173 172 171 171 172 175 175 173 169 163 165 163 154 156 161 157 140 110 96 77 59 69 68 67 73 75 74 64 56 69 94 93 75 67 62 64 64 58 45 35 40 49 46 40 37 34 32 35
257 0 32 65 109 126 157 172 165 155 139 184 172 142 140 137 142 154 145 131 154 143 161 186 136 123 247 248 230 199 196 220 216 208 202 199 193 182 179 176 173 173 175 177 179 179 176 172 171 167 162 166 171 166 146 117 98 75 88 106 88 79 82 84 86 78 65 68 77 78 82 78 66 67 70 62 49 40 39 45 47 47 45 36 29 32
266 43 36 64 74 83 164 168 162 155 133 170 154 143 151 150 150 157 130 112 134 110 146 229 185 125 264 250 193 174 197 219 215 210 202 198 194 184 180 180 178 178 182 187 188 186 182 176 176 174 168 170 175 169 157 147 160 161 147 132 115 104 98 95 90 81 67 60 59 61 78 98 82 67 65 56 46 44 41 43 48 49 46 38 33 34
319 83 129 111 91 121 194 144 155 158 122 139 144 133 130 132 129 121 106 109 94 91 201 220 184 140 279 254 162 164 205 218 212 207 200 198 195 187 182 182 182 182 186 193 193 188 184 179 179 181 176 176 180 175 176 200 211 186 170 146 136 128 118 117 101 82 66 49 44 45 53 74 70 54 49 52 57 55 48 43 44 41 35 33 36 38
341 23 104 99 105 155 111 62 70 110 112 115 117 100 87 78 76 67 57 94 84 331 241 207 180 158 267 258 180 184 209 205 196 197 198 197 195 190 185 183 183 183 186 191 191 185 182 182 182 185 183 180 182 183 193 205 201 192 187 167 154 145 140 146 138 109 64 43 41 40 42 57 62 51 47 57 63 58 52 44 42 37 29 24 28 37
4 16 351 8 73 100 88 55 31 39 92 105 103 105 98 28 20 43 1 39 115 259 261 204 174 158 235 258 208 210 215 188 181 191 194 193 193 191 188 185 184 184 186 188 188 183 180 183 186 188 188 185 188 196 199 199 201 200 200 196 193 183 159 163 176 171 53 28 38 41 44 56 61 52 47 53 56 56 53 46 42 39 31 28 31 45
355 320 300 335 66 98 94 63 23 18 54 97 114 113 101 55 26 23 298 317 206 244 262 176 155 157 243 248 218 212 212 184 186 192 191 190 190 190 190 187 184 185 187 187 186 183 184 187 188 190 191 191 198 201 193 193 201 204 205 209 213 204 179 178 196 200 264 356 26 43 48 56 60 51 48 50 49 53 55 46 41 37 32 33 42 51
334 312 330 25 346 103 106 105 99 359 48 112 138 133 112 117 101 265 256 274 231 253 313 133 148 191 277 265 222 206 202 192 191 193 191 190 189 190 191 187 185 185 186 187 187 186 188 190 190 193 193 193 196 192 185 192 203 204 203 208 216 210 193 195 210 212 232 316 8 46 44 55 66 50 47 50 47 50 51 42 39 35 29 31 40 48
118 317 293 186 243 219 103 142 162 144 109 143 157 130 122 147 148 188 212 194 210 247 3 105 156 192 226 254 237 202 196 192 191 193 190 188 189 188 186 184 183 183 184 187 189 189 192 193 192 193 188 182 182 180 182 193 203 208 203 207 215 211 203 210 215 214 236 281 331 45 34 53 78 51 42 43 41 43 37 33 36 29 24 24 25 30
116 239 257 209 166 145 108 170 149 111 83 243 131 94 121 182 146 140 182 174 171 152 63 154 204 221 200 272 300 178 180 186 186 186 182 182 184 180 180 181 180 181 184 186 189 191 193 194 193 191 183 174 172 177 184 192 199 207 206 208 216 214 213 221 218 214 233 262 290 12 348 1 73 51 31 30 30 30 23 22 23 19 20 20 11 11
98 262 275 32 131 147 150 175 169 135 145 329 74 137 233 173 122 110 209 13 74 99 248 218 258 300 308 312 328 97 153 174 171 173 174 175 176 176 180 182 178 180 185 188 191 193 195 195 194 191 185 179 177 182 189 195 199 203 204 208 217 216 214 219 219 218 228 249 283 285 261 286 355 18 10 15 21 19 16 17 18 19 23 18 5 1
135 279 282 124 139 184 171 169 168 155 143 108 185 210 219 66 78 101 115 15 37 116 277 262 210 268 223 244 308 78 137 165 164 166 169 169 172 177 184 186 183 183 187 190 194 196 197 198 195 193 193 188 183 188 193 195 198 200 202 206 213 216 214 213 218 223 225 234 278 268 250 270 319 358 1 9 14 11 12 16 21 26 27 19 9 5
129 36 294 217 169 190 172 137 53 257 161 126 197 184 110 82 338 45 123 118 81 172 283 303 261 241 193 208 247 160 155 166 164 164 162 166 174 179 185 189 188 185 188 191 195 198 199 200 198 196 198 195 190 197 204 201 199 202 205 205 210 217 217 213 219 230 233 236 260 256 246 264 298 343 355 4 6 4 6 12 22 26 23 18 12 8
122 105 273 265 194 144 75 70 141 257 269 355 333 287 78 137 169 168 164 154 137 161 245 303 328 275 227 210 194 187 181 164 161 164 165 172 178 181 184 188 189 187 189 192 196 199 201 200 198 199 202 199 194 202 212 211 207 208 208 207 210 216 217 218 226 239 245 241 246 243 242 260 285 312 331 353 1 359 5 9 17 23 21 19 12 5
79 105 181 290 320 103 92 220 185 198 226 206 272 258 268 104 128 125 178 152 126 140 184 190 289 270 253 199 181 193 191 170 169 168 170 175 178 181 185 187 188 188 189 193 197 200 202 200 199 201 205 203 200 207 216 219 217 213 210 207 207 211 217 222 227 238 239 229 231 240 248 262 282 298 312 342 354 349 360 6 15 22 21 16 7 359
110 119 141 287 314 170 226 231 191 186 191 168 170 204 189 155 118 88 314 290 104 130 170 159 205 267 261 184 183 194 186 180 177 167 166 175 178 182 186 186 188 189 189 193 197 199 200 199 198 201 204 203 205 212 217 223 223 219 212 206 204 213 221 224 226 229 227 218 221 235 245 256 279 299 305 330 348 345 343 347 4 18 16 7 359 348
134 103 98 144 229 230 254 272 206 179 171 141 153 180 141 120 118 119 193 259 45 78 161 124 128 269 264 199 179 186 182 182 178 168 165 173 178 182 184 186 189 192 193 194 196 199 200 199 197 198 203 204 208 215 220 224 225 223 218 208 206 220 228 227 227 225 219 217 222 233 237 247 279 314 305 316 341 342 330 333 352 6 6 358 344 329
68 77 66 326 298 303 307 321 347 64 92 80 33 89 120 140 144 143 172 177 103 57 152 86 36 270 276 226 175 182 181 179 177 171 168 172 179 183 184 187 191 194 195 196 196 199 201 200 196 195 202 208 213 218 222 226 227 226 224 215 213 226 230 227 227 223 220 221 223 229 230 241 284 322 300 301 333 345 342 345 348 350 347 336 326 318
43 85 77 50 3 348 346 345 350 1 34 82 326 332 132 129 94 95 105 81 73 240 154 125 219 256 276 326 155 169 167 171 178 176 173 175 179 183 186 189 192 193 194 196 197 200 202 202 200 199 204 210 215 219 224 229 230 229 228 221 218 225 226 226 228 223 220 220 218 223 228 250 283 307 300 304 341 359 1 347 326 307 311 319 319 315
121 143 115 105 118 163 203 290 281 296 341 15 335 332 33 81 78 90 62 69 76 262 115 133 211 255 295 41 118 150 149 159 180 179 179 181 181 184 187 187 190 191 192 195 198 201 203 203 204 205 209 213 218 223 226 228 230 229 226 221 220 222 221 223 224 219 218 218 218 228 324 316 284 303 313 315 346 1 342 232 254 290 308 313 315 317
96 91 120 135 159 178 182 221 228 173 84 22 336 321 77 77 81 97 88 90 165 144 69 211 196 184 272 290 136 160 156 155 170 170 176 183 184 185 188 188 189 189 191 195 198 201 203 205 207 208 214 218 221 226 228 230 232 225 217 217 218 217 218 219 215 209 216 219 220 247 356 6 317 297 283 253 233 239 220 226 277 300 307 311 316 324
87 31 96 143 179 203 186 209 222 165 148 161 174 213 162 97 82 88 109 172 143 108 290 258 184 158 226 228 177 176 167 157 165 165 170 179 182 184 188 188 188 187 188 191 196 199 202 206 208 210 217 223 226 231 233 235 230 217 208 214 215 212 215 213 203 200 211 212 211 235 314 189 211 235 231 213 207 219 237 276 294 301 310 318 324 332
105 122 216 145 247 254 218 223 208 153 192 174 167 196 171 123 113 116 167 186 135 131 225 232 173 180 222 220 193 184 173 170 171 167 167 171 174 178 181 184 187 189 190 192 197 202 204 208 210 211 218 224 224 222 219 217 213 205 201 211 211 208 211 206 199 203 208 198 196 204 198 186 192 204 206 204 211 233 267 291 301 309 319 326 333 342
99 187 217 144 8 288 260 246 213 138 124 298 189 200 178 143 152 156 173 179 139 152 209 176 160 204 226 201 197 188 177 175 171 166 165 166 170 175 180 184 188 192 196 199 203 205 207 212 212 208 213 219 213 203 193 193 197 197 202 211 207 203 205 203 200 194 181 179 185 187 177 171 176 184 192 206 227 250 276 294 308 320 327 334 341 346
85 214 232 104 54 305 286 246 224 136 127 300 289 206 159 130 148 159 162 164 118 99 178 122 131 209 252 202 190 180 173 168 163 165 168 170 175 182 185 188 191 195 201 205 207 208 211 214 212 207 208 210 205 196 181 180 186 192 195 193 189 185 183 186 184 173 167 171 174 175 170 164 168 181 201 223 239 264 296 313 323 331 336 340 344 346
87 176 294 63 70 290 277 217 227 53 75 16 339 176 161 146 160 180 187 179 139 124 122 109 128 210 245 190 166 162 162 159 162 171 174 175 181 186 187 189 193 199 204 208 210 211 213 214 210 206 206 205 199 185 173 175 184 191 180 165 162 159 156 166 172 165 162 164 166 173 177 179 192 216 232 237 265 314 326 330 334 338 340 342 346 346
119 111 88 90 106 277 276 204 170 45 44 346 292 182 178 186 165 142 159 201 164 140 139 155 191 217 203 156 145 155 161 161 166 171 172 174 177 180 182 184 191 201 208 216 218 216 216 217 212 205 203 202 198 190 184 189 194 189 171 157 149 147 152 166 170 162 160 163 169 182 193 208 230 241 244 271 327 333 333 335 337 341 345 346 345 341
122 108 143 148 120 272 291 5 63 49 48 258 249 188 177 181 164 156 184 208 191 154 144 170 185 192 173 154 156 169 174 174 175 174 173 176 172 166 170 172 174 184 195 212 220 220 218 217 212 207 203 198 194 189 186 190 186 167 154 147 148 153 159 167 168 163 164 168 179 193 204 221 232 238 267 322 339 337 336 338 341 348 353 351 344 341
120 106 146 130 95 229 338 41 58 271 236 245 278 271 186 162 155 160 192 223 200 148 121 137 158 178 183 172 167 173 176 174 178 177 174 176 173 163 159 158 157 157 157 173 203 214 216 215 211 207 201 189 180 173 166 159 151 146 145 148 155 162 166 169 169 169 174 180 187 195 206 219 230 267 327 339 340 336 337 342 348 357 359 353 347 342
136 140 145 92 89 168 60 74 160 241 260 288 315 303 195 121 113 118 18 272 228 166 141 154 180 197 192 176 166 173 170 157 158 164 163 166 170 164 157 153 148 144 142 145 162 183 195 198 194 187 178 168 162 158 149 138 140 148 151 154 162 166 168 175 179 179 184 190 192 195 202 222 284 335 340 339 336 335 341 348 354 359 358 352 344 337
128 131 111 55 84 151 137 197 261 290 305 311 310 248 203 188 158 144 168 261 248 194 164 165 183 201 187 155 142 149 148 136 130 149 157 158 163 163 156 150 143 136 133 135 138 144 151 156 159 157 155 153 152 149 141 138 145 153 152 154 163 168 172 182 184 182 187 192 192 193 202 279 319 330 335 335 334 338 347 354 355 354 352 349 344 339
107 130 139 126 101 104 109 321 323 17 272 262 249 251 269 219 158 133 121 284 270 212 184 171 171 180 162 139 135 136 135 128 125 167 165 159 159 157 148 144 144 140 137 139 140 141 144 147 149 149 149 149 145 143 145 147 154 162 164 166 173 176 178 183 184 185 191 197 196 197 276 312 319 329 333 333 335 342 351 356 353 348 347 349 349 350
65 72 107 103 56 63 103 132 215 202 242 247 242 262 278 137 132 100 66 311 273 213 192 176 164 165 153 147 147 140 130 133 200 193 174 164 163 163 152 145 145 138 135 142 148 149 149 148 146 145 147 148 146 147 155 161 167 175 178 180 184 187 189 193 195 196 197 200 206 267 316 319 326 334 335 334 339 348 355 354 350 346 347 351 358 359
49 24 62 97 185 188 122 154 229 230 250 257 247 242 173 137 113 75 51 272 264 205 193 180 166 165 160 154 154 150 153 182 194 187 176 169 168 169 162 154 150 143 137 144 151 153 152 150 146 141 140 147 150 154 163 171 176 179 180 182 187 193 196 196 196 194 192 199 240 305 320 326 332 336 336 340 349 356 355 348 345 347 349 356 6 7
32 1 70 124 173 164 144 197 269 259 249 252 234 192 150 119 78 78 199 243 216 170 187 183 170 168 166 161 162 175 193 196 187 176 171 168 167 166 163 159 154 147 143 148 153 156 157 157 153 141 135 142 151 163 174 181 184 184 184 188 192 193 191 189 189 191 196 222 289 312 320 327 332 335 340 348 355 356 346 339 344 349 351 359 10 13
168 300 87 140 163 166 160 181 284 283 257 214 174 156 132 111 88 214 200 190 142 145 175 187 180 174 172 173 178 189 193 187 177 171 169 170 169 165 162 159 150 144 146 150 153 158 161 163 161 149 143 147 158 172 184 193 200 197 194 195 193 187 183 183 187 198 220 275 307 313 320 327 331 336 344 351 352 345 336 340 347 350 352 1 13 17
175 166 216 217 182 155 86 71 82 281 247 168 139 119 133 155 217 199 165 154 149 140 149 178 186 182 180 181 186 187 175 165 167 170 170 171 172 168 165 162 153 148 151 153 156 162 166 167 165 158 157 163 173 185 197 207 208 202 197 196 190 183 182 183 189 209 245 295 318 323 328 329 331 338 346 348 341 331 335 344 348 349 355 6 14 18
180 159 189 233 198 137 117 192 206 230 198 173 163 178 204 209 218 177 163 165 168 156 143 159 181 190 190 187 180 169 162 161 165 168 169 170 172 169 167 164 157 154 156 158 163 171 174 173 170 168 171 178 185 194 206 217 212 203 200 198 191 186 187 189 200 234 276 319 336 336 329 323 327 335 340 339 328 328 335 341 344 350 1 11 15 21
213 189 174 192 194 169 181 213 226 226 185 180 185 202 208 208 201 182 180 182 176 175 177 172 176 192 194 187 172 162 161 162 164 169 172 172 172 170 168 165 160 159 161 165 172 180 182 179 178 178 180 184 192 199 208 221 221 210 204 199 191 190 194 201 222 256 286 318 336 333 311 293 299 303 304 311 316 324 333 337 342 353 7 15 20 28
218 188 150 133 196 232 281 242 231 213 185 185 193 206 199 191 188 190 197 197 187 191 201 197 196 194 187 180 170 162 162 165 168 172 174 172 172 171 169 164 161 162 166 169 175 182 185 184 185 187 185 184 189 196 203 216 227 222 210 199 192 194 201 210 229 250 274 311 329 310 252 247 251 255 275 298 308 320 329 331 339 355 11 23 34 41
319 109 97 75 119 114 313 265 221 192 187 187 190 196 191 185 185 188 192 198 205 213 208 206 208 193 181 177 172 168 168 170 171 172 173 174 174 172 168 165 164 167 170 172 172 176 182 186 189 190 188 184 185 192 202 210 219 225 217 203 197 200 208 214 217 225 268 325 326 248 227 239 248 252 274 294 303 313 321 326 336 352 10 30 44 49
286 108 110 177 166 169 240 245 224 202 197 194 192 193 191 189 187 186 190 203 219 218 209 206 199 186 180 180 179 175 173 174 174 173 174 175 174 171 170 170 171 172 177 180 177 177 183 189 192 195 197 193 190 196 206 210 213 216 212 205 206 212 220 219 206 205 291 294 266 233 229 238 250 263 279 287 291 301 309 318 332 345 7 31 41 46
185 204 204 152 153 283 286 250 211 225 235 219 211 205 200 199 200 197 201 211 210 203 204 198 189 186 186 185 184 181 177 177 179 178 176 176 175 174 174 176 178 181 185 186 185 186 191 195 199 202 205 202 197 198 205 208 208 208 206 206 212 219 219 205 188 188 234 236 227 226 231 242 255 269 282 286 285 291 298 308 324 342 5 25 35 39
136 249 226 104 89 279 271 207 173 166 247 230 221 215 208 207 207 203 202 205 198 194 197 193 188 191 193 191 189 186 182 182 184 185 182 180 180 181 182 183 186 188 190 191 193 196 199 201 204 206 206 203 198 196 200 203 202 204 207 212 217 216 204 186 176 188 225 230 224 223 231 247 257 264 279 286 285 286 291 300 319 341 0 17 27 31
191 216 184 143 178 237 244 208 190 190 214 224 222 221 215 209 208 206 206 207 200 193 192 192 191 192 193 193 193 192 189 187 189 191 189 187 188 190 191 193 195 195 196 199 201 201 201 204 206 206 205 201 196 192 196 199 200 204 210 214 213 205 193 185 190 217 238 233 228 226 234 248 254 260 273 280 278 278 286 297 309 327 348 9 19 21